Year,Month,Day,Hour,Minute,Value (Times are PST for windgust in km/hr)
2017,04,06,00,00,4.80
2017,04,06,00,01,11.30
2017,04,06,00,02,6.40
2017,04,06,00,03,4.80
2017,04,06,00,04,4.80
2017,04,06,00,05,8.10
2017,04,06,00,06,6.40
2017,04,06,00,07,8.10
2017,04,06,00,08,8.10
2017,04,06,00,09,9.60
2017,04,06,00,10,9.60
2017,04,06,00,11,3.20
2017,04,06,00,12,3.20
2017,04,06,00,13,14.50
2017,04,06,00,14,6.40
2017,04,06,00,15,11.30
2017,04,06,00,16,9.60
2017,04,06,00,17,14.50
2017,04,06,00,18,6.40
2017,04,06,00,19,9.60
2017,04,06,00,20,11.30
2017,04,06,00,21,9.60
2017,04,06,00,22,9.60
2017,04,06,00,23,14.50
2017,04,06,00,24,16.10
2017,04,06,00,25,6.40
2017,04,06,00,26,17.70
2017,04,06,00,27,14.50
2017,04,06,00,28,16.10
2017,04,06,00,29,12.90
2017,04,06,00,30,11.30
2017,04,06,00,31,14.50
2017,04,06,00,32,11.30
2017,04,06,00,33,17.70
2017,04,06,00,34,11.30
2017,04,06,00,35,16.10
2017,04,06,00,36,8.10
2017,04,06,00,37,11.30
2017,04,06,00,38,11.30
2017,04,06,00,39,4.80
2017,04,06,00,40,8.10
2017,04,06,00,41,14.50
2017,04,06,00,42,9.60
2017,04,06,00,43,8.10
2017,04,06,00,44,6.40
2017,04,06,00,45,4.80
2017,04,06,00,46,8.10
2017,04,06,00,47,8.10
2017,04,06,00,48,4.80
2017,04,06,00,49,1.60
2017,04,06,00,50,3.20
2017,04,06,00,51,14.50
2017,04,06,00,52,12.90
2017,04,06,00,53,9.60
2017,04,06,00,54,8.10
2017,04,06,00,55,9.60
2017,04,06,00,56,8.10
2017,04,06,00,57,4.80
2017,04,06,00,58,8.10
2017,04,06,00,59,6.40
2017,04,06,01,00,1.60
2017,04,06,01,01,12.90
2017,04,06,01,02,3.20
2017,04,06,01,03,1.60
2017,04,06,01,04,1.60
2017,04,06,01,05,1.60
2017,04,06,01,06,1.60
2017,04,06,01,07,1.60
2017,04,06,01,08,1.60
2017,04,06,01,09,3.20
2017,04,06,01,10,1.60
2017,04,06,01,11,6.40
2017,04,06,01,12,3.20
2017,04,06,01,13,16.10
2017,04,06,01,14,8.10
2017,04,06,01,15,8.10
2017,04,06,01,16,6.40
2017,04,06,01,17,8.10
2017,04,06,01,18,11.30
2017,04,06,01,19,14.50
2017,04,06,01,20,9.60
2017,04,06,01,21,6.40
2017,04,06,01,22,9.60
2017,04,06,01,23,8.10
2017,04,06,01,24,12.90
2017,04,06,01,25,9.60
2017,04,06,01,26,4.80
2017,04,06,01,27,4.80
2017,04,06,01,28,8.10
2017,04,06,01,29,8.10
2017,04,06,01,30,4.80
2017,04,06,01,31,12.90
2017,04,06,01,32,8.10
2017,04,06,01,33,4.80
2017,04,06,01,34,11.30
2017,04,06,01,35,11.30
2017,04,06,01,36,11.30
2017,04,06,01,37,11.30
2017,04,06,01,38,12.90
2017,04,06,01,39,3.20
2017,04,06,01,40,8.10
2017,04,06,01,41,8.10
2017,04,06,01,42,11.30
2017,04,06,01,43,4.80
2017,04,06,01,44,4.80
2017,04,06,01,45,6.40
2017,04,06,01,46,3.20
2017,04,06,01,47,6.40
2017,04,06,01,48,11.30
2017,04,06,01,49,8.10
2017,04,06,01,50,6.40
2017,04,06,01,51,9.60
2017,04,06,01,52,4.80
2017,04,06,01,53,8.10
2017,04,06,01,54,8.10
2017,04,06,01,55,14.50
2017,04,06,01,56,9.60
2017,04,06,01,57,6.40
2017,04,06,01,58,8.10
2017,04,06,01,59,8.10
2017,04,06,02,00,8.10
2017,04,06,02,01,12.90
2017,04,06,02,02,14.50
2017,04,06,02,03,8.10
2017,04,06,02,04,6.40
2017,04,06,02,05,8.10
2017,04,06,02,06,11.30
2017,04,06,02,07,6.40
2017,04,06,02,08,6.40
2017,04,06,02,09,3.20
2017,04,06,02,10,6.40
2017,04,06,02,11,6.40
2017,04,06,02,12,4.80
2017,04,06,02,13,4.80
2017,04,06,02,14,8.10
2017,04,06,02,15,4.80
2017,04,06,02,16,3.20
2017,04,06,02,17,4.80
2017,04,06,02,18,4.80
2017,04,06,02,19,8.10
2017,04,06,02,20,8.10
2017,04,06,02,21,6.40
2017,04,06,02,22,4.80
2017,04,06,02,23,4.80
2017,04,06,02,24,4.80
2017,04,06,02,25,4.80
2017,04,06,02,26,3.20
2017,04,06,02,27,4.80
2017,04,06,02,28,4.80
2017,04,06,02,29,4.80
2017,04,06,02,30,4.80
2017,04,06,02,32,3.20
2017,04,06,02,33,4.80
2017,04,06,02,34,3.20
2017,04,06,02,36,1.60
2017,04,06,02,38,4.80
2017,04,06,02,39,6.40
2017,04,06,02,40,6.40
2017,04,06,02,41,6.40
2017,04,06,02,42,9.60
2017,04,06,02,43,6.40
2017,04,06,02,44,6.40
2017,04,06,02,45,6.40
2017,04,06,02,46,8.10
2017,04,06,02,47,4.80
2017,04,06,02,48,4.80
2017,04,06,02,49,1.60
2017,04,06,02,50,1.60
2017,04,06,02,51,4.80
2017,04,06,02,52,4.80
2017,04,06,02,53,4.80
2017,04,06,02,54,3.20
2017,04,06,02,55,1.60
2017,04,06,02,56,4.80
2017,04,06,02,57,3.20
2017,04,06,02,58,3.20
2017,04,06,02,59,3.20
2017,04,06,03,00,4.80
2017,04,06,03,01,4.80
2017,04,06,03,02,8.10
2017,04,06,03,03,6.40
2017,04,06,03,04,3.20
2017,04,06,03,05,1.60
2017,04,06,03,06,3.20
2017,04,06,03,07,8.10
2017,04,06,03,08,3.20
2017,04,06,03,09,6.40
2017,04,06,03,10,1.60
2017,04,06,03,11,12.90
2017,04,06,03,12,11.30
2017,04,06,03,13,3.20
2017,04,06,03,14,6.40
2017,04,06,03,15,4.80
2017,04,06,03,16,3.20
2017,04,06,03,17,4.80
2017,04,06,03,18,4.80
2017,04,06,03,19,6.40
2017,04,06,03,20,4.80
2017,04,06,03,21,4.80
2017,04,06,03,22,4.80
2017,04,06,03,23,1.60
2017,04,06,03,24,1.60
2017,04,06,03,25,1.60
2017,04,06,03,26,3.20
2017,04,06,03,27,3.20
2017,04,06,03,28,1.60
2017,04,06,03,29,6.40
2017,04,06,03,30,4.80
2017,04,06,03,31,8.10
2017,04,06,03,32,4.80
2017,04,06,03,33,4.80
2017,04,06,03,34,6.40
2017,04,06,03,35,6.40
2017,04,06,03,36,9.60
2017,04,06,03,37,4.80
2017,04,06,03,38,6.40
2017,04,06,03,39,4.80
2017,04,06,03,40,1.60
2017,04,06,03,41,4.80
2017,04,06,03,42,4.80
2017,04,06,03,43,6.40
2017,04,06,03,44,4.80
2017,04,06,03,45,4.80
2017,04,06,03,46,4.80
2017,04,06,03,47,6.40
2017,04,06,03,48,4.80
2017,04,06,03,49,8.10
2017,04,06,03,50,6.40
2017,04,06,03,51,4.80
2017,04,06,03,52,14.50
2017,04,06,03,53,9.60
2017,04,06,03,54,4.80
2017,04,06,03,55,4.80
2017,04,06,03,56,4.80
2017,04,06,03,57,3.20
2017,04,06,03,58,1.60
2017,04,06,03,59,16.10
2017,04,06,04,00,12.90
2017,04,06,04,01,9.60
2017,04,06,04,02,11.30
2017,04,06,04,03,8.10
2017,04,06,04,04,6.40
2017,04,06,04,05,14.50
2017,04,06,04,06,16.10
2017,04,06,04,07,4.80
2017,04,06,04,08,4.80
2017,04,06,04,09,4.80
2017,04,06,04,10,11.30
2017,04,06,04,11,4.80
2017,04,06,04,12,8.10
2017,04,06,04,13,9.60
2017,04,06,04,14,6.40
2017,04,06,04,15,4.80
2017,04,06,04,16,3.20
2017,04,06,04,17,6.40
2017,04,06,04,18,4.80
2017,04,06,04,19,11.30
2017,04,06,04,20,4.80
2017,04,06,04,21,6.40
2017,04,06,04,22,8.10
2017,04,06,04,23,11.30
2017,04,06,04,24,9.60
2017,04,06,04,25,6.40
2017,04,06,04,26,14.50
2017,04,06,04,27,6.40
2017,04,06,04,28,6.40
2017,04,06,04,29,6.40
2017,04,06,04,30,4.80
2017,04,06,04,31,3.20
2017,04,06,04,32,12.90
2017,04,06,04,33,11.30
2017,04,06,04,34,12.90
2017,04,06,04,35,11.30
2017,04,06,04,36,11.30
2017,04,06,04,37,4.80
2017,04,06,04,38,8.10
2017,04,06,04,39,11.30
2017,04,06,04,40,8.10
2017,04,06,04,41,16.10
2017,04,06,04,42,19.30
2017,04,06,04,43,11.30
2017,04,06,04,44,14.50
2017,04,06,04,45,11.30
2017,04,06,04,46,14.50
2017,04,06,04,47,16.10
2017,04,06,04,48,22.50
2017,04,06,04,49,20.90
2017,04,06,04,50,17.70
2017,04,06,04,51,8.10
2017,04,06,04,52,6.40
2017,04,06,04,53,12.90
2017,04,06,04,54,3.20
2017,04,06,04,55,6.40
2017,04,06,04,56,6.40
2017,04,06,04,57,4.80
2017,04,06,04,58,4.80
2017,04,06,04,59,3.20
2017,04,06,05,00,4.80
2017,04,06,05,01,3.20
2017,04,06,05,02,11.30
2017,04,06,05,03,3.20
2017,04,06,05,04,3.20
2017,04,06,05,05,3.20
2017,04,06,05,06,4.80
2017,04,06,05,07,12.90
2017,04,06,05,08,1.60
2017,04,06,05,09,8.10
2017,04,06,05,10,4.80
2017,04,06,05,11,8.10
2017,04,06,05,12,12.90
2017,04,06,05,13,8.10
2017,04,06,05,14,4.80
2017,04,06,05,15,11.30
2017,04,06,05,16,3.20
2017,04,06,05,17,4.80
2017,04,06,05,18,4.80
2017,04,06,05,19,1.60
2017,04,06,05,20,1.60
2017,04,06,05,21,1.60
2017,04,06,05,22,1.60
2017,04,06,05,23,1.60
2017,04,06,05,24,1.60
2017,04,06,05,25,3.20
2017,04,06,05,26,3.20
2017,04,06,05,27,1.60
2017,04,06,05,28,3.20
2017,04,06,05,29,1.60
2017,04,06,05,30,1.60
2017,04,06,05,31,1.60
2017,04,06,05,32,1.60
2017,04,06,05,33,8.10
2017,04,06,05,34,4.80
2017,04,06,05,35,1.60
2017,04,06,05,36,1.60
2017,04,06,05,37,1.60
2017,04,06,05,38,3.20
2017,04,06,05,39,3.20
2017,04,06,05,40,1.60
2017,04,06,05,42,8.10
2017,04,06,05,43,12.90
2017,04,06,05,44,11.30
2017,04,06,05,45,8.10
2017,04,06,05,46,4.80
2017,04,06,05,47,3.20
2017,04,06,05,48,4.80
2017,04,06,05,49,3.20
2017,04,06,05,50,3.20
2017,04,06,05,51,4.80
2017,04,06,05,52,1.60
2017,04,06,05,53,4.80
2017,04,06,05,54,1.60
2017,04,06,05,55,1.60
2017,04,06,05,56,1.60
2017,04,06,05,57,3.20
2017,04,06,05,58,11.30
2017,04,06,05,59,12.90
2017,04,06,06,00,3.20
2017,04,06,06,01,8.10
2017,04,06,06,02,4.80
2017,04,06,06,03,1.60
2017,04,06,06,04,3.20
2017,04,06,06,05,4.80
2017,04,06,06,06,4.80
2017,04,06,06,07,4.80
2017,04,06,06,08,3.20
2017,04,06,06,09,3.20
2017,04,06,06,10,3.20
2017,04,06,06,11,3.20
2017,04,06,06,12,4.80
2017,04,06,06,13,4.80
2017,04,06,06,14,4.80
2017,04,06,06,15,4.80
2017,04,06,06,16,4.80
2017,04,06,06,17,8.10
2017,04,06,06,18,4.80
2017,04,06,06,19,8.10
2017,04,06,06,20,16.10
2017,04,06,06,21,12.90
2017,04,06,06,22,16.10
2017,04,06,06,23,16.10
2017,04,06,06,24,16.10
2017,04,06,06,25,14.50
2017,04,06,06,26,19.30
2017,04,06,06,27,11.30
2017,04,06,06,28,25.70
2017,04,06,06,29,12.90
2017,04,06,06,30,11.30
2017,04,06,06,31,9.60
2017,04,06,06,32,16.10
2017,04,06,06,33,22.50
2017,04,06,06,34,11.30
2017,04,06,06,35,20.90
2017,04,06,06,36,16.10
2017,04,06,06,37,14.50
2017,04,06,06,38,14.50
2017,04,06,06,39,16.10
2017,04,06,06,40,4.80
2017,04,06,06,41,14.50
2017,04,06,06,42,19.30
2017,04,06,06,43,16.10
2017,04,06,06,44,11.30
2017,04,06,06,45,11.30
2017,04,06,06,46,16.10
2017,04,06,06,47,16.10
2017,04,06,06,48,14.50
2017,04,06,06,49,11.30
2017,04,06,06,50,16.10
2017,04,06,06,51,22.50
2017,04,06,06,52,11.30
2017,04,06,06,53,3.20
2017,04,06,06,54,4.80
2017,04,06,06,55,14.50
2017,04,06,06,56,20.90
2017,04,06,06,57,17.70
2017,04,06,06,58,20.90
2017,04,06,06,59,16.10
2017,04,06,07,00,12.90
2017,04,06,07,01,11.30
2017,04,06,07,02,12.90
2017,04,06,07,03,8.10
2017,04,06,07,04,12.90
2017,04,06,07,05,12.90
2017,04,06,07,06,11.30
2017,04,06,07,07,9.60
2017,04,06,07,08,20.90
2017,04,06,07,09,17.70
2017,04,06,07,10,24.20
2017,04,06,07,11,24.20
2017,04,06,07,12,14.50
2017,04,06,07,13,22.50
2017,04,06,07,14,20.90
2017,04,06,07,15,24.20
2017,04,06,07,16,12.90
2017,04,06,07,17,14.50
2017,04,06,07,18,11.30
2017,04,06,07,19,9.60
2017,04,06,07,20,6.40
2017,04,06,07,21,17.70
2017,04,06,07,22,12.90
2017,04,06,07,23,16.10
2017,04,06,07,24,14.50
2017,04,06,07,25,20.90
2017,04,06,07,26,16.10
2017,04,06,07,27,24.20
2017,04,06,07,28,20.90
2017,04,06,07,29,17.70
2017,04,06,07,30,19.30
2017,04,06,07,31,14.50
2017,04,06,07,32,16.10
2017,04,06,07,33,14.50
2017,04,06,07,34,14.50
2017,04,06,07,35,11.30
2017,04,06,07,36,12.90
2017,04,06,07,37,12.90
2017,04,06,07,38,12.90
2017,04,06,07,39,12.90
2017,04,06,07,40,12.90
2017,04,06,07,41,14.50
2017,04,06,07,42,11.30
2017,04,06,07,43,8.10
2017,04,06,07,44,8.10
2017,04,06,07,45,12.90
2017,04,06,07,46,8.10
2017,04,06,07,47,8.10
2017,04,06,07,48,11.30
2017,04,06,07,49,11.30
2017,04,06,07,50,6.40
2017,04,06,07,51,9.60
2017,04,06,07,52,8.10
2017,04,06,07,53,6.40
2017,04,06,07,54,11.30
2017,04,06,07,55,12.90
2017,04,06,07,56,9.60
2017,04,06,07,57,8.10
2017,04,06,07,58,14.50
2017,04,06,07,59,11.30
2017,04,06,08,00,11.30
2017,04,06,08,01,16.10
2017,04,06,08,02,11.30
2017,04,06,08,03,11.30
2017,04,06,08,04,8.10
2017,04,06,08,05,14.50
2017,04,06,08,06,11.30
2017,04,06,08,07,11.30
2017,04,06,08,08,8.10
2017,04,06,08,09,8.10
2017,04,06,08,10,8.10
2017,04,06,08,11,11.30
2017,04,06,08,12,14.50
2017,04,06,08,13,12.90
2017,04,06,08,14,12.90
2017,04,06,08,15,4.80
2017,04,06,08,16,16.10
2017,04,06,08,17,11.30
2017,04,06,08,18,11.30
2017,04,06,08,19,9.60
2017,04,06,08,20,6.40
2017,04,06,08,21,20.90
2017,04,06,08,22,12.90
2017,04,06,08,23,20.90
2017,04,06,08,24,14.50
2017,04,06,08,25,9.60
2017,04,06,08,26,6.40
2017,04,06,08,27,11.30
2017,04,06,08,28,4.80
2017,04,06,08,29,9.60
2017,04,06,08,30,14.50
2017,04,06,08,31,14.50
2017,04,06,08,32,17.70
2017,04,06,08,33,12.90
2017,04,06,08,34,16.10
2017,04,06,08,35,16.10
2017,04,06,08,36,11.30
2017,04,06,08,37,22.50
2017,04,06,08,38,12.90
2017,04,06,08,39,14.50
2017,04,06,08,40,17.70
2017,04,06,08,41,16.10
2017,04,06,08,42,12.90
2017,04,06,08,43,9.60
2017,04,06,08,44,17.70
2017,04,06,08,45,9.60
2017,04,06,08,46,19.30
2017,04,06,08,47,12.90
2017,04,06,08,48,12.90
2017,04,06,08,49,14.50
2017,04,06,08,50,8.10
2017,04,06,08,51,11.30
2017,04,06,08,52,14.50
2017,04,06,08,53,16.10
2017,04,06,08,54,24.20
2017,04,06,08,55,12.90
2017,04,06,08,56,12.90
2017,04,06,08,57,12.90
2017,04,06,08,58,17.70
2017,04,06,08,59,11.30
2017,04,06,09,00,11.30
2017,04,06,09,01,11.30
2017,04,06,09,02,12.90
2017,04,06,09,03,14.50
2017,04,06,09,04,11.30
2017,04,06,09,05,14.50
2017,04,06,09,06,4.80
2017,04,06,09,07,9.60
2017,04,06,09,08,16.10
2017,04,06,09,09,11.30
2017,04,06,09,10,12.90
2017,04,06,09,11,16.10
2017,04,06,09,12,16.10
2017,04,06,09,13,14.50
2017,04,06,09,14,12.90
2017,04,06,09,15,12.90
2017,04,06,09,16,6.40
2017,04,06,09,17,8.10
2017,04,06,09,18,9.60
2017,04,06,09,19,4.80
2017,04,06,09,20,8.10
2017,04,06,09,21,11.30
2017,04,06,09,22,8.10
2017,04,06,09,23,16.10
2017,04,06,09,24,8.10
2017,04,06,09,25,9.60
2017,04,06,09,26,11.30
2017,04,06,09,27,16.10
2017,04,06,09,28,9.60
2017,04,06,09,29,11.30
2017,04,06,09,30,11.30
2017,04,06,09,31,9.60
2017,04,06,09,32,9.60
2017,04,06,09,33,12.90
2017,04,06,09,34,12.90
2017,04,06,09,35,17.70
2017,04,06,09,36,11.30
2017,04,06,09,37,8.10
2017,04,06,09,38,4.80
2017,04,06,09,39,4.80
2017,04,06,09,40,11.30
2017,04,06,09,41,3.20
2017,04,06,09,42,8.10
2017,04,06,09,43,8.10
2017,04,06,09,44,12.90
2017,04,06,09,45,4.80
2017,04,06,09,46,12.90
2017,04,06,09,47,9.60
2017,04,06,09,48,4.80
2017,04,06,09,49,11.30
2017,04,06,09,50,4.80
2017,04,06,09,51,12.90
2017,04,06,09,52,11.30
2017,04,06,09,53,9.60
2017,04,06,09,54,11.30
2017,04,06,09,55,11.30
2017,04,06,09,56,8.10
2017,04,06,09,57,11.30
2017,04,06,09,58,8.10
2017,04,06,09,59,6.40
2017,04,06,10,00,8.10
2017,04,06,10,01,12.90
2017,04,06,10,02,8.10
2017,04,06,10,03,9.60
2017,04,06,10,04,4.80
2017,04,06,10,05,20.90
2017,04,06,10,06,14.50
2017,04,06,10,07,16.10
2017,04,06,10,08,20.90
2017,04,06,10,09,17.70
2017,04,06,10,10,12.90
2017,04,06,10,11,11.30
2017,04,06,10,12,14.50
2017,04,06,10,13,9.60
2017,04,06,10,14,16.10
2017,04,06,10,15,12.90
2017,04,06,10,16,8.10
2017,04,06,10,17,11.30
2017,04,06,10,18,6.40
2017,04,06,10,19,4.80
2017,04,06,10,20,3.20
2017,04,06,10,21,4.80
2017,04,06,10,22,16.10
2017,04,06,10,23,12.90
2017,04,06,10,24,4.80
2017,04,06,10,25,9.60
2017,04,06,10,26,9.60
2017,04,06,10,27,4.80
2017,04,06,10,28,8.10
2017,04,06,10,29,9.60
2017,04,06,10,30,4.80
2017,04,06,10,31,11.30
2017,04,06,10,32,14.50
2017,04,06,10,33,14.50
2017,04,06,10,34,19.30
2017,04,06,10,35,8.10
2017,04,06,10,36,11.30
2017,04,06,10,37,8.10
2017,04,06,10,38,12.90
2017,04,06,10,39,11.30
2017,04,06,10,40,12.90
2017,04,06,10,41,12.90
2017,04,06,10,42,4.80
2017,04,06,10,43,8.10
2017,04,06,10,44,11.30
2017,04,06,10,45,14.50
2017,04,06,10,46,8.10
2017,04,06,10,47,9.60
2017,04,06,10,48,8.10
2017,04,06,10,49,6.40
2017,04,06,10,50,6.40
2017,04,06,10,51,4.80
2017,04,06,10,52,4.80
2017,04,06,10,53,6.40
2017,04,06,10,54,3.20
2017,04,06,10,55,1.60
2017,04,06,10,56,1.60
2017,04,06,10,57,4.80
2017,04,06,10,58,6.40
2017,04,06,10,59,8.10
2017,04,06,11,00,4.80
2017,04,06,11,01,4.80
2017,04,06,11,02,4.80
2017,04,06,11,03,3.20
2017,04,06,11,04,8.10
2017,04,06,11,05,4.80
2017,04,06,11,06,6.40
2017,04,06,11,07,8.10
2017,04,06,11,08,6.40
2017,04,06,11,09,12.90
2017,04,06,11,10,4.80
2017,04,06,11,11,3.20
2017,04,06,11,12,6.40
2017,04,06,11,13,8.10
2017,04,06,11,14,8.10
2017,04,06,11,15,4.80
2017,04,06,11,16,4.80
2017,04,06,11,17,8.10
2017,04,06,11,18,4.80
2017,04,06,11,19,1.60
2017,04,06,11,20,4.80
2017,04,06,11,21,6.40
2017,04,06,11,22,8.10
2017,04,06,11,23,8.10
2017,04,06,11,24,8.10
2017,04,06,11,25,8.10
2017,04,06,11,26,6.40
2017,04,06,11,27,4.80
2017,04,06,11,28,11.30
2017,04,06,11,29,16.10
2017,04,06,11,30,9.60
2017,04,06,11,31,16.10
2017,04,06,11,32,14.50
2017,04,06,11,33,11.30
2017,04,06,11,34,8.10
2017,04,06,11,35,9.60
2017,04,06,11,36,8.10
2017,04,06,11,37,12.90
2017,04,06,11,38,11.30
2017,04,06,11,39,8.10
2017,04,06,11,40,4.80
2017,04,06,11,41,9.60
2017,04,06,11,42,9.60
2017,04,06,11,43,8.10
2017,04,06,11,44,11.30
2017,04,06,11,45,8.10
2017,04,06,11,46,8.10
2017,04,06,11,47,8.10
2017,04,06,11,48,9.60
2017,04,06,11,49,9.60
2017,04,06,11,50,12.90
2017,04,06,11,51,8.10
2017,04,06,11,52,4.80
2017,04,06,11,53,8.10
2017,04,06,11,54,4.80
2017,04,06,11,55,12.90
2017,04,06,11,56,8.10
2017,04,06,11,57,9.60
2017,04,06,11,58,4.80
2017,04,06,11,59,4.80
2017,04,06,12,00,16.10
2017,04,06,12,01,14.50
2017,04,06,12,02,4.80
2017,04,06,12,03,4.80
2017,04,06,12,04,9.60
2017,04,06,12,05,8.10
2017,04,06,12,06,8.10
2017,04,06,12,07,11.30
2017,04,06,12,08,12.90
2017,04,06,12,09,9.60
2017,04,06,12,10,6.40
2017,04,06,12,11,14.50
2017,04,06,12,12,6.40
2017,04,06,12,13,8.10
2017,04,06,12,14,6.40
2017,04,06,12,15,4.80
2017,04,06,12,16,8.10
2017,04,06,12,17,4.80
2017,04,06,12,18,3.20
2017,04,06,12,19,11.30
2017,04,06,12,20,8.10
2017,04,06,12,21,8.10
2017,04,06,12,22,11.30
2017,04,06,12,23,8.10
2017,04,06,12,24,4.80
2017,04,06,12,25,4.80
2017,04,06,12,26,4.80
2017,04,06,12,27,8.10
2017,04,06,12,28,3.20
2017,04,06,12,29,11.30
2017,04,06,12,30,3.20
2017,04,06,12,31,4.80
2017,04,06,12,32,8.10
2017,04,06,12,33,8.10
2017,04,06,12,34,8.10
2017,04,06,12,35,4.80
2017,04,06,12,36,4.80
2017,04,06,12,37,6.40
2017,04,06,12,38,8.10
2017,04,06,12,39,4.80
2017,04,06,12,40,4.80
2017,04,06,12,41,3.20
2017,04,06,12,42,6.40
2017,04,06,12,43,6.40
2017,04,06,12,44,8.10
2017,04,06,12,45,11.30
2017,04,06,12,46,8.10
2017,04,06,12,47,8.10
2017,04,06,12,48,4.80
2017,04,06,12,49,6.40
2017,04,06,12,50,6.40
2017,04,06,12,51,4.80
2017,04,06,12,52,6.40
2017,04,06,12,53,4.80
2017,04,06,12,54,4.80
2017,04,06,12,55,6.40
2017,04,06,12,56,8.10
2017,04,06,12,57,11.30
2017,04,06,12,58,6.40
2017,04,06,12,59,3.20
2017,04,06,13,00,1.60
2017,04,06,13,01,1.60
2017,04,06,13,02,1.60
2017,04,06,13,03,3.20
2017,04,06,13,04,6.40
2017,04,06,13,05,8.10
2017,04,06,13,06,4.80
2017,04,06,13,07,3.20
2017,04,06,13,08,8.10
2017,04,06,13,09,6.40
2017,04,06,13,10,4.80
2017,04,06,13,11,6.40
2017,04,06,13,12,6.40
2017,04,06,13,13,8.10
2017,04,06,13,14,3.20
2017,04,06,13,15,3.20
2017,04,06,13,16,4.80
2017,04,06,13,17,4.80
2017,04,06,13,18,4.80
2017,04,06,13,19,3.20
2017,04,06,13,23,1.60
2017,04,06,13,25,1.60
2017,04,06,13,26,4.80
2017,04,06,13,27,6.40
2017,04,06,13,28,1.60
2017,04,06,13,29,4.80
2017,04,06,13,30,6.40
2017,04,06,13,31,6.40
2017,04,06,13,32,4.80
2017,04,06,13,33,3.20
2017,04,06,13,34,4.80
2017,04,06,13,35,4.80
2017,04,06,13,36,6.40
2017,04,06,13,37,3.20
2017,04,06,13,38,4.80
2017,04,06,13,39,6.40
2017,04,06,13,40,8.10
2017,04,06,13,41,9.60
2017,04,06,13,42,6.40
2017,04,06,13,43,3.20
2017,04,06,13,44,3.20
2017,04,06,13,45,4.80
2017,04,06,13,46,8.10
2017,04,06,13,47,9.60
2017,04,06,13,48,8.10
2017,04,06,13,49,4.80
2017,04,06,13,50,6.40
2017,04,06,13,51,3.20
2017,04,06,13,53,3.20
2017,04,06,13,54,6.40
2017,04,06,13,55,4.80
2017,04,06,13,56,4.80
2017,04,06,13,57,6.40
2017,04,06,13,58,9.60
2017,04,06,13,59,11.30
2017,04,06,14,00,11.30
2017,04,06,14,01,9.60
2017,04,06,14,02,9.60
2017,04,06,14,03,11.30
2017,04,06,14,04,9.60
2017,04,06,14,05,11.30
2017,04,06,14,06,8.10
2017,04,06,14,07,9.60
2017,04,06,14,08,14.50
2017,04,06,14,09,11.30
2017,04,06,14,10,6.40
2017,04,06,14,11,9.60
2017,04,06,14,12,14.50
2017,04,06,14,13,8.10
2017,04,06,14,14,9.60
2017,04,06,14,15,11.30
2017,04,06,14,16,9.60
2017,04,06,14,17,11.30
2017,04,06,14,18,9.60
2017,04,06,14,19,8.10
2017,04,06,14,20,9.60
2017,04,06,14,21,4.80
2017,04,06,14,22,16.10
2017,04,06,14,23,14.50
2017,04,06,14,24,9.60
2017,04,06,14,25,12.90
2017,04,06,14,26,11.30
2017,04,06,14,27,8.10
2017,04,06,14,28,9.60
2017,04,06,14,29,8.10
2017,04,06,14,30,9.60
2017,04,06,14,31,8.10
2017,04,06,14,32,9.60
2017,04,06,14,33,8.10
2017,04,06,14,34,6.40
2017,04,06,14,35,6.40
2017,04,06,14,36,4.80
2017,04,06,14,37,4.80
2017,04,06,14,38,6.40
2017,04,06,14,39,9.60
2017,04,06,14,40,6.40
2017,04,06,14,41,6.40
2017,04,06,14,42,6.40
2017,04,06,14,43,12.90
2017,04,06,14,44,8.10
2017,04,06,14,45,9.60
2017,04,06,14,46,8.10
2017,04,06,14,47,6.40
2017,04,06,14,48,11.30
2017,04,06,14,49,9.60
2017,04,06,14,50,12.90
2017,04,06,14,51,12.90
2017,04,06,14,52,16.10
2017,04,06,14,53,17.70
2017,04,06,14,54,12.90
2017,04,06,14,55,12.90
2017,04,06,14,56,9.60
2017,04,06,14,57,17.70
2017,04,06,14,58,14.50
2017,04,06,14,59,12.90
2017,04,06,15,00,11.30
2017,04,06,15,01,16.10
2017,04,06,15,02,20.90
2017,04,06,15,03,16.10
2017,04,06,15,04,11.30
2017,04,06,15,05,14.50
2017,04,06,15,06,14.50
2017,04,06,15,07,11.30
2017,04,06,15,08,14.50
2017,04,06,15,09,16.10
2017,04,06,15,10,14.50
2017,04,06,15,11,11.30
2017,04,06,15,12,8.10
2017,04,06,15,13,9.60
2017,04,06,15,14,12.90
2017,04,06,15,15,16.10
2017,04,06,15,16,11.30
2017,04,06,15,17,12.90
2017,04,06,15,18,17.70
2017,04,06,15,19,17.70
2017,04,06,15,20,19.30
2017,04,06,15,21,16.10
2017,04,06,15,22,16.10
2017,04,06,15,23,12.90
2017,04,06,15,24,14.50
2017,04,06,15,25,14.50
2017,04,06,15,26,12.90
2017,04,06,15,27,12.90
2017,04,06,15,28,8.10
2017,04,06,15,29,9.60
2017,04,06,15,30,12.90
2017,04,06,15,31,12.90
2017,04,06,15,32,11.30
2017,04,06,15,33,11.30
2017,04,06,15,34,9.60
2017,04,06,15,35,9.60
2017,04,06,15,36,12.90
2017,04,06,15,37,11.30
2017,04,06,15,38,8.10
2017,04,06,15,39,9.60
2017,04,06,15,40,9.60
2017,04,06,15,41,8.10
2017,04,06,15,42,6.40
2017,04,06,15,43,4.80
2017,04,06,15,44,11.30
2017,04,06,15,45,11.30
2017,04,06,15,46,11.30
2017,04,06,15,47,6.40
2017,04,06,15,48,6.40
2017,04,06,15,49,12.90
2017,04,06,15,50,6.40
2017,04,06,15,51,11.30
2017,04,06,15,52,11.30
2017,04,06,15,53,12.90
2017,04,06,15,54,6.40
2017,04,06,15,55,6.40
2017,04,06,15,56,6.40
2017,04,06,15,57,3.20
2017,04,06,15,58,6.40
2017,04,06,15,59,8.10
2017,04,06,16,00,8.10
2017,04,06,16,01,8.10
2017,04,06,16,02,11.30
2017,04,06,16,03,11.30
2017,04,06,16,04,11.30
2017,04,06,16,05,8.10
2017,04,06,16,06,4.80
2017,04,06,16,07,4.80
2017,04,06,16,08,8.10
2017,04,06,16,09,6.40
2017,04,06,16,10,6.40
2017,04,06,16,11,6.40
2017,04,06,16,12,8.10
2017,04,06,16,13,8.10
2017,04,06,16,14,4.80
2017,04,06,16,15,4.80
2017,04,06,16,16,3.20
2017,04,06,16,17,1.60
2017,04,06,16,19,1.60
2017,04,06,16,21,6.40
2017,04,06,16,22,4.80
2017,04,06,16,23,3.20
2017,04,06,16,24,4.80
2017,04,06,16,25,3.20
2017,04,06,16,26,1.60
2017,04,06,16,27,4.80
2017,04,06,16,28,3.20
2017,04,06,16,29,4.80
2017,04,06,16,30,3.20
2017,04,06,16,31,1.60
2017,04,06,16,32,1.60
2017,04,06,16,33,3.20
2017,04,06,16,34,3.20
2017,04,06,16,35,1.60
2017,04,06,16,36,3.20
2017,04,06,16,37,3.20
2017,04,06,16,38,3.20
2017,04,06,16,39,3.20
2017,04,06,16,40,3.20
2017,04,06,16,41,11.30
2017,04,06,16,42,20.90
2017,04,06,16,43,9.60
2017,04,06,16,44,14.50
2017,04,06,16,45,16.10
2017,04,06,16,46,12.90
2017,04,06,16,47,11.30
2017,04,06,16,48,12.90
2017,04,06,16,49,8.10
2017,04,06,16,50,8.10
2017,04,06,16,51,3.20
2017,04,06,16,52,8.10
2017,04,06,16,53,4.80
2017,04,06,16,54,6.40
2017,04,06,16,55,4.80
2017,04,06,16,56,8.10
2017,04,06,16,57,9.60
2017,04,06,16,58,4.80
2017,04,06,16,59,12.90
2017,04,06,17,00,16.10
2017,04,06,17,01,12.90
2017,04,06,17,02,9.60
2017,04,06,17,03,8.10
2017,04,06,17,04,8.10
2017,04,06,17,05,8.10
2017,04,06,17,06,11.30
2017,04,06,17,07,9.60
2017,04,06,17,08,12.90
2017,04,06,17,09,11.30
2017,04,06,17,10,9.60
2017,04,06,17,11,9.60
2017,04,06,17,12,16.10
2017,04,06,17,13,12.90
2017,04,06,17,14,11.30
2017,04,06,17,15,12.90
2017,04,06,17,16,16.10
2017,04,06,17,17,6.40
2017,04,06,17,18,8.10
2017,04,06,17,19,4.80
2017,04,06,17,20,3.20
2017,04,06,17,21,4.80
2017,04,06,17,22,12.90
2017,04,06,17,23,11.30
2017,04,06,17,24,3.20
2017,04,06,17,25,9.60
2017,04,06,17,26,9.60
2017,04,06,17,27,3.20
2017,04,06,17,28,4.80
2017,04,06,17,29,9.60
2017,04,06,17,30,9.60
2017,04,06,17,31,11.30
2017,04,06,17,32,16.10
2017,04,06,17,33,16.10
2017,04,06,17,34,8.10
2017,04,06,17,35,6.40
2017,04,06,17,36,19.30
2017,04,06,17,37,16.10
2017,04,06,17,38,3.20
2017,04,06,17,39,9.60
2017,04,06,17,40,4.80
2017,04,06,17,41,8.10
2017,04,06,17,42,9.60
2017,04,06,17,43,16.10
2017,04,06,17,44,11.30
2017,04,06,17,45,8.10
2017,04,06,17,46,9.60
2017,04,06,17,47,6.40
2017,04,06,17,48,8.10
2017,04,06,17,49,3.20
2017,04,06,17,50,3.20
2017,04,06,17,51,3.20
2017,04,06,17,52,4.80
2017,04,06,17,53,11.30
2017,04,06,17,54,12.90
2017,04,06,17,55,17.70
2017,04,06,17,56,11.30
2017,04,06,17,57,11.30
2017,04,06,17,58,17.70
2017,04,06,17,59,14.50
2017,04,06,18,00,4.80